Location: *
(46.1006°N, 1.8394°E)
Time: 19:00:40
(UTC+00:00)

Cosmos 864 Rocket - Pass Details

Date: 20 September 2019
Orbit: 954 x 991 km, 82.9° (Epoch: 19 October)

Event Time Altitude Azimuth Distance (km) Brightness Sun altitude
Rises 19:40:09 0° 353° (N) 3,667 7.9 -18.6°
Reaches altitude 10° 19:42:41 10° 356° (N) 2,721 7.2 -19.0°
Maximum altitude 19:48:54 67° 79° (E) 1,054 4.4 -20.0°
Enters shadow 19:52:29 27° 155° (SSE) 1,795 5.5 -20.6°
